Simultaneous Nadir Overpasses (SNOs) Predictions

Prediction of SNOs between NPP and PACE Satellite Orbit:

Table of predicted SNOs for the next 14.0 days since TLE Epoch: 12/14/2024
Index Date (NPP) Time (NPP) Lat,Lon (NPP) SZA (NPP ) Date (PACE) Time (PACE) Lat,Lon (PACE) SZA (PACE ) Distance(km) Time Diff (sec)
1 12/14/2024 06:04:31 -79.87,-128.72 75.10 12/14/2024 06:04:38 -79.86,-128.68 75.10 0.76 7
2 12/16/2024 10:31:00 -79.83, 164.98 75.03 12/16/2024 10:30:48 -79.83, 165.02 75.03 0.65 12
3 12/18/2024 14:06:50 79.98, -70.36 105.33 12/18/2024 14:07:52 79.97, -70.34 105.30 0.55 62
4 12/18/2024 14:57:29 -79.80, 98.64 74.99 12/18/2024 14:56:57 -79.79, 98.78 75.00 3.05 32
5 12/20/2024 18:33:18 79.92,-136.46 105.29 12/20/2024 18:34:00 79.93,-136.49 105.28 0.57 42
6 12/20/2024 19:23:57 -79.75, 32.55 75.03 12/20/2024 19:23:05 -79.74, 32.62 75.02 1.59 52
7 12/22/2024 22:59:47 79.90, 157.10 105.28 12/22/2024 23:00:08 79.90, 157.15 105.26 1.03 21
8 12/22/2024 23:50:26 -79.72, -33.87 75.05 12/22/2024 23:49:13 -79.72, -33.74 75.04 2.71 73
9 12/25/2024 03:26:14 79.83, 91.20 105.12 12/25/2024 03:26:14 79.83, 91.15 105.13 1.24 0
10 12/27/2024 07:02:03 -79.96,-144.05 74.69 12/27/2024 07:03:16 -79.97,-144.16 74.71 2.13 73



Historial Predications of SNOs between NPP and PACE
